Weather History for Huntingburg, IN

Change the Weather History Date:

Saturday, September 21, 2013

  Actual Average Record
Temperature  
Mean Temperature 63 °F -  
Max Temperature 71 °F 75 °F 96 °F (2010)
Min Temperature 53 °F 52 °F 44 °F (2006)
Degree Days  
Heating Degree Days 2    
Growing Degree Days 13 (Base 50)    
Moisture  
Dew Point 54 °F    
Average Humidity 74    
Maximum Humidity 94    
Minimum Humidity 43    
Precipitation  
Precipitation 0.22 in - - ()
Sea Level Pressure  
Sea Level Pressure 29.86 in    
Wind  
Wind Speed 7 mph (NNW)    
Max Wind Speed 15 mph    
Max Gust Speed 21 mph    
Visibility 10 miles    
Events      
Averages and records for this station are not official NWS values.
T = Trace of Precipitation, MM = Missing Value Source: NWS Daily Summary

Daily Weather History Graph

Daily Weather History Graph

Search for Another Location

Airport:

Trip Planner

Search our weather history database for the weather conditions in past years. The results will help you decide how hot, cold, wet, or windy it might be!

Date:

Astronomy

Sep. 21, 2013 Rise Set
Actual Time 7:34 AM EDT 7:45 PM EDT
Civil Twilight 7:08 AM EDT 8:12 PM EDT
Nautical Twilight 6:37 AM EDT 8:43 PM EDT
Astronomical Twilight 6:06 AM EDT 9:14 PM EDT
Moon 8:59 PM EDT (9/21) 9:50 AM EDT (9/21)
Length of Visible Light 13h 03m
Length of Day
12h 11m
Waning Gibbous, 94% of the Moon is Illuminated
Sep 21
Waning Gibbous
Sep 26
Last Quarter
Oct 4
New
Oct 11
First Quarter
Oct 18
Full

Hourly Weather History & Observations

Time (EDT) Temp. Dew Point Humidity Pressure Visibility Wind Dir Wind Speed Gust Speed Precip Events Conditions
12:15 AM 66.2 °F 64.4 °F 94% 29.85 in 8.0 mi WNW 4.6 mph - 0.02 in   Partly Cloudy
12:35 AM 66.2 °F 64.4 °F 94% 29.84 in 7.0 mi WNW 3.5 mph - 0.02 in   Partly Cloudy
12:55 AM 66.2 °F 64.4 °F 94% 29.84 in 6.0 mi Calm Calm - 0.04 in   Mostly Cloudy
1:15 AM 66.2 °F 64.4 °F 94% 29.83 in 5.0 mi West 3.5 mph - 0.04 in   Overcast
1:35 AM 66.2 °F 64.4 °F 94% 29.83 in 5.0 mi WNW 3.5 mph - 0.06 in   Overcast
1:55 AM 64.4 °F 62.6 °F 94% 29.83 in 9.0 mi North 9.2 mph 20.7 mph 0.09 in   Unknown
2:15 AM 64.4 °F 62.6 °F 94% 29.83 in 10.0 mi North 8.1 mph - 0.03 in   Overcast
2:35 AM 64.4 °F 62.6 °F 94% 29.84 in 10.0 mi NNW 10.4 mph - 0.05 in   Overcast
2:55 AM 62.6 °F 60.8 °F 94% 29.82 in 10.0 mi NNW 10.4 mph - 0.06 in   Overcast
3:15 AM 62.6 °F 59.0 °F 88% 29.82 in 10.0 mi NNW 10.4 mph - 0.02 in   Overcast
3:35 AM 62.6 °F 59.0 °F 88% 29.82 in 10.0 mi NNW 8.1 mph - 0.03 in   Overcast
3:55 AM 60.8 °F 57.2 °F 88% 29.82 in 10.0 mi North 6.9 mph - 0.03 in   Overcast
4:15 AM 60.8 °F 57.2 °F 88% 29.81 in 10.0 mi NNW 5.8 mph - N/A   Overcast
4:35 AM 60.8 °F 57.2 °F 88% 29.81 in 10.0 mi NNW 5.8 mph - N/A   Overcast
4:55 AM 60.8 °F 57.2 °F 88% 29.81 in 10.0 mi NNW 9.2 mph - N/A   Overcast
5:15 AM 60.8 °F 55.4 °F 82% 29.81 in 10.0 mi NNW 10.4 mph - N/A   Mostly Cloudy
5:35 AM 60.8 °F 55.4 °F 82% 29.81 in 10.0 mi NNW 6.9 mph - N/A   Clear
5:55 AM 60.8 °F 55.4 °F 82% 29.82 in 10.0 mi NNW 10.4 mph - N/A   Clear
6:15 AM 59.0 °F 55.4 °F 88% 29.82 in 10.0 mi NNW 8.1 mph - N/A   Clear
6:35 AM 59.0 °F 55.4 °F 88% 29.82 in 10.0 mi NNW 9.2 mph - N/A   Clear
6:55 AM 57.2 °F 53.6 °F 88% 29.83 in 10.0 mi NNW 6.9 mph - N/A   Clear
7:15 AM 57.2 °F 53.6 °F 88% 29.84 in 10.0 mi NW 8.1 mph - N/A   Clear
7:35 AM 57.2 °F 53.6 °F 88% 29.85 in 10.0 mi NW 6.9 mph - N/A   Clear
7:55 AM 57.2 °F 53.6 °F 88% 29.86 in 10.0 mi NW 8.1 mph - N/A   Clear
8:15 AM 57.2 °F 53.6 °F 88% 29.86 in 10.0 mi NNW 6.9 mph - N/A   Clear
8:35 AM 57.2 °F 53.6 °F 88% 29.87 in 10.0 mi NW 5.8 mph - N/A   Clear
8:55 AM 57.2 °F 53.6 °F 88% 29.87 in 10.0 mi NW 5.8 mph - N/A   Clear
9:15 AM 57.2 °F 53.6 °F 88% 29.88 in 10.0 mi NW 5.8 mph - N/A   Clear
9:35 AM 57.2 °F 53.6 °F 88% 29.88 in 10.0 mi NW 9.2 mph - N/A   Unknown
9:55 AM 59.0 °F 53.6 °F 82% 29.88 in 10.0 mi North 9.2 mph - N/A   Partly Cloudy
10:15 AM 60.8 °F 55.4 °F 82% 29.89 in 10.0 mi NNW 10.4 mph - N/A   Clear
10:35 AM 62.6 °F 55.4 °F 77% 29.88 in 10.0 mi North 8.1 mph - N/A   Clear
10:55 AM 62.6 °F 55.4 °F 77% 29.89 in 10.0 mi NNW 8.1 mph - N/A   Partly Cloudy
11:15 AM 62.6 °F 55.4 °F 77% 29.89 in 10.0 mi NW 9.2 mph - N/A   Mostly Cloudy
11:35 AM 64.4 °F 55.4 °F 73% 29.89 in 10.0 mi North 8.1 mph - N/A   Mostly Cloudy
11:55 AM 66.2 °F 55.4 °F 68% 29.89 in 10.0 mi NNW 10.4 mph - N/A   Mostly Cloudy
12:15 PM 66.2 °F 55.4 °F 68% 29.88 in 10.0 mi NNW 12.7 mph 16.1 mph N/A   Scattered Clouds
12:35 PM 66.2 °F 53.6 °F 64% 29.88 in 10.0 mi North 10.4 mph 16.1 mph N/A   Scattered Clouds
12:55 PM 68.0 °F 55.4 °F 64% 29.88 in 10.0 mi NW 10.4 mph - N/A   Scattered Clouds
1:15 PM 69.8 °F 55.4 °F 60% 29.88 in 10.0 mi North 11.5 mph 17.3 mph N/A   Mostly Cloudy
1:35 PM 69.8 °F 53.6 °F 56% 29.88 in 10.0 mi North 12.7 mph 17.3 mph N/A   Mostly Cloudy
1:55 PM 69.8 °F 53.6 °F 56% 29.87 in 10.0 mi North 9.2 mph - N/A   Unknown
2:15 PM 69.8 °F 53.6 °F 56% 29.87 in 10.0 mi NW 15.0 mph 20.7 mph N/A   Mostly Cloudy
2:35 PM 69.8 °F 51.8 °F 53% 29.87 in 10.0 mi NNW 12.7 mph 18.4 mph N/A   Mostly Cloudy
2:55 PM 69.8 °F 51.8 °F 53% 29.87 in 10.0 mi NNW 8.1 mph 16.1 mph N/A   Unknown
3:15 PM 71.6 °F 51.8 °F 50% 29.87 in 10.0 mi North 8.1 mph 17.3 mph N/A   Scattered Clouds
3:35 PM 71.6 °F 51.8 °F 50% 29.86 in 10.0 mi NNW 12.7 mph 16.1 mph N/A   Scattered Clouds
3:55 PM 71.6 °F 51.8 °F 50% 29.86 in 10.0 mi NNW 12.7 mph - N/A   Scattered Clouds
4:15 PM 71.6 °F 51.8 °F 50% 29.85 in 10.0 mi NW 11.5 mph 16.1 mph N/A   Clear
4:35 PM 71.6 °F 51.8 °F 50% 29.85 in 10.0 mi NNW 12.7 mph 17.3 mph N/A   Partly Cloudy
4:55 PM 71.6 °F 51.8 °F 50% 29.85 in 10.0 mi NNW 11.5 mph 17.3 mph N/A   Unknown
5:15 PM 71.6 °F 51.8 °F 50% 29.85 in 10.0 mi NW 10.4 mph - N/A   Scattered Clouds
5:35 PM 69.8 °F 48.2 °F 46% 29.86 in 10.0 mi North 10.4 mph - N/A   Scattered Clouds
5:55 PM 71.6 °F 48.2 °F 43% 29.86 in 10.0 mi NW 8.1 mph - N/A   Scattered Clouds
6:15 PM 71.6 °F 48.2 °F 43% 29.86 in 10.0 mi North 10.4 mph - N/A   Mostly Cloudy
6:35 PM 69.8 °F 48.2 °F 46% 29.87 in 10.0 mi NNW 9.2 mph - N/A   Scattered Clouds
6:55 PM 69.8 °F 48.2 °F 46% 29.87 in 10.0 mi North 5.8 mph - N/A   Clear
7:15 PM 68.0 °F 48.2 °F 49% 29.87 in 10.0 mi NNW 4.6 mph - N/A   Clear
7:35 PM 66.2 °F 48.2 °F 52% 29.87 in 10.0 mi NW 4.6 mph - N/A   Clear
7:55 PM 64.4 °F 48.2 °F 56% 29.87 in 10.0 mi NW 4.6 mph - N/A   Clear
8:15 PM 62.6 °F 50.0 °F 63% 29.88 in 10.0 mi NW 4.6 mph - N/A   Clear
8:35 PM 60.8 °F 51.8 °F 72% 29.88 in 10.0 mi NW 3.5 mph - N/A   Clear
8:55 PM 59.0 °F 51.8 °F 77% 29.89 in 10.0 mi WNW 3.5 mph - N/A   Clear
9:15 PM 57.2 °F 51.8 °F 82% 29.89 in 10.0 mi WNW 4.6 mph - N/A   Scattered Clouds
9:35 PM 57.2 °F 51.8 °F 82% 29.90 in 10.0 mi Calm Calm - N/A   Partly Cloudy
9:55 PM 57.2 °F 51.8 °F 82% 29.90 in 10.0 mi Calm Calm - N/A   Clear
10:15 PM 57.2 °F 51.8 °F 82% 29.90 in 10.0 mi Calm Calm - N/A   Clear
10:35 PM 55.4 °F 51.8 °F 88% 29.90 in 10.0 mi Calm Calm - N/A   Clear
10:55 PM 55.4 °F 51.8 °F 88% 29.90 in 10.0 mi Calm Calm - N/A   Clear
11:15 PM 55.4 °F 51.8 °F 88% 29.90 in 10.0 mi Calm Calm - N/A   Clear
11:35 PM 55.4 °F 50.0 °F 82% 29.91 in 10.0 mi Calm Calm - N/A   Clear
11:55 PM 53.6 °F 50.0 °F 88% 29.91 in 10.0 mi Calm Calm - N/A   Clear